Location: Fenile
(46.0500°N, 9.5500°E)
Time: 20:15:55
(UTC+00:00)

Daily predictions for brighter satellites

Satellite Brightness Start Highest point End
(mag) Time Altitude Azimuth Time Altitude Azimuth Time Altitude Azimuth
Meteor 1-25 Rocket 4.4 17:32:08 10° S 17:37:46 58° E 17:43:21 10° NNE
Cosmos 2074 Rocket 4.0 17:35:39 10° S 17:41:51 69° E 17:48:05 10° NNE
Meteor 1-27 Rocket 4.5 17:36:36 10° NNW 17:42:02 58° W 17:47:27 10° S
Cosmos 2154 Rocket 4.3 17:36:20 10° SSE 17:42:11 45° E 17:48:02 10° NNE
Abrixas rocket 1.7 17:40:50 10° W 17:43:18 63° NNW 17:45:47 10° ENE
YAOGAN 1 2.7 17:39:18 10° SSE 17:43:30 52° ENE 17:47:43 10° N
Helios 1A Rocket 3.7 17:40:12 10° SE 17:43:46 31° ENE 17:47:21 10° N
APEX 2.9 17:43:52 10° NW 17:46:40 60° WSW 17:49:19 10° SSE
Cosmos 2219 Rocket 3.8 17:46:50 10° ESE 17:48:33 11° E 17:50:16 10° ENE
COSMO-SKYMED 1 2.9 17:45:46 10° N 17:50:07 72° WNW 17:54:26 10° SSW
GP-B 4.1 17:47:21 10° SE 17:50:56 25° ENE 17:54:33 10° NNE
Cosmos 1992 Rocket 4.2 17:49:25 10° S 17:54:26 49° ESE 17:59:29 10° NNE
SL-16 R/B 2.2 17:49:21 10° SSW 17:55:00 77° ESE 18:00:41 10° NNE
Cosmos 2263 Rocket 3.2 17:49:57 10° NW 17:55:20 51° WSW 18:00:41 10° S
Cosmos 1437 4.5 17:52:42 10° NNW 17:55:23 33° W 17:58:01 10° SSW
Meteor 1-18 Rocket 4.4 17:50:13 10° N 17:56:07 61° ENE 18:01:56 10° SSE
Cosmos 968 Rocket 3.5 17:51:00 10° NNW 17:56:18 87° ENE 18:01:34 10° SSE
ARGOS 3.3 17:51:19 10° SSE 17:56:36 57° ENE 18:01:55 10° N
USA 234 4.0 17:53:53 10° ENE 17:59:41 33° SE 18:05:26 10° S
Cosmos 1486 Rocket 4.0 17:54:44 10° NNW 18:00:03 83° ENE 18:05:22 10° SSE
Cosmos 1515 3.6 17:56:35 10° N 18:00:25 67° E 18:04:12 10° SSE
Okean 1 3.3 17:56:29 10° N 18:00:30 65° E 18:04:30 10° SSE
Cosmos 1633 Rocket 3.1 17:57:57 10° S 18:02:22 89° WSW 18:06:50 10° N
Cosmos 2184 Rocket 4.1 17:56:17 10° S 18:02:27 87° W 18:08:43 10° N
SeaSat 1 2.9 17:58:17 10° NE 18:02:58 40° ESE 18:07:35 10° S
OBJECT-B 3.0 18:03:22 11° ENE 18:03:22 11° ENE 18:04:07 10° NE
Okean 1-7 4.0 18:00:12 10° NNE 18:03:56 27° ENE 18:07:38 10° SE
Cosmos 1707 Rocket 4.4 17:59:41 10° NNW 18:03:59 55° W 18:08:13 10° S
CZ-4 R/B 1.6 18:04:06 10° S 18:07:56 72° WSW 18:11:51 10° NNW
H-2A R/B 2.3 18:02:29 10° SSE 18:07:56 84° WSW 18:13:26 10° NNW
CZ-2C R/B 2.9 18:03:02 10° NNE 18:08:18 45° E 18:13:24 10° S
SAR-Lupe-4 3.6 18:07:20 10° NNE 18:10:52 58° ESE 18:14:24 10° S
USA 305 4.4 18:07:24 10° WNW 18:11:11 29° N 18:14:50 11° NE
Gbstr 26 Del rocket 4.0 18:09:39 10° W 18:13:55 46° N 18:18:27 13° ENE
Cosmos 2237 4.3 18:08:42 10° S 18:14:18 59° ESE 18:19:57 10° NNE
SL-4 R/B 2.6 18:13:19 10° WNW 18:16:38 35° N 18:18:38 19° ENE
USA 307 4.4 18:18:47 10° WNW 18:22:31 28° N 18:25:41 13° NE
USA 186 3.2 18:25:07 16° NNE 18:25:07 16° NNE 18:25:55 10° NNE
ATLAS CENTAUR R/B 1.1 18:20:31 10° SSW 18:24:02 54° ESE 18:26:56 15° NE
FALCON 9 DEB 3.2 18:21:11 10° NW 18:24:34 60° NNE 18:26:13 27° E
USA 306 4.4 18:22:15 10° WNW 18:25:58 28° N 18:28:56 14° NE
Cosmos 1354 Rocket 3.9 18:21:30 10° NNW 18:26:46 71° ENE 18:31:58 10° SSE
Okean-O 3.3 18:23:25 10° S 18:27:46 58° W 18:32:10 10° NNW
ERS-2 2.2 18:24:29 10° NNE 18:28:09 79° WNW 18:31:48 10° SSW
Cosmos 44 Rocket 4.0 18:23:01 10° NW 18:28:12 61° WSW 18:33:18 10° SSE
CSL-04 Rocket 3.7 18:23:31 10° SSE 18:29:04 84° ENE 18:34:37 10° NNW
SAR-Lupe-1 4.2 18:26:41 10° N 18:30:17 78° WNW 18:33:52 10° SSW
CSL-04 Debris 4.2 18:24:58 10° SSE 18:30:25 89° WSW 18:35:56 10° NNW
Cosmos 1844 Rocket 2.6 18:24:56 10° NNW 18:30:31 70° ENE 18:36:04 10° SE
Cosmos 2084 Rocket 3.7 18:26:20 10° NW 18:30:41 73° SW 18:34:59 11° SSE
USA 308 4.4 18:29:28 10° WNW 18:33:12 28° N 18:35:51 16° NE
Cosmos 1666 3.0 18:30:07 10° SSE 18:33:35 39° E 18:37:05 10° NNE
Cosmos 1777 Rocket 4.5 18:30:26 10° N 18:35:23 40° ENE 18:37:59 24° ESE
HJ-1C 4.1 18:32:29 10° S 18:35:44 55° W 18:39:00 10° NNW
Cosmos 1503 Rocket 4.0 18:31:46 10° NNW 18:36:59 83° WSW 18:42:08 10° SSE
Cosmos 2341 Rocket 4.0 18:31:17 10° S 18:37:30 64° E 18:43:42 10° NNE
Meteor 1-5 Rocket 4.1 18:32:36 10° S 18:37:51 60° E 18:43:16 10° NNE
Cosmos 2333 4.5 18:32:58 10° S 18:38:15 43° ESE 18:43:36 10° NE
Cosmos 1470 Rocket 4.1 18:37:12 10° SSW 18:41:37 61° WNW 18:46:03 10° N
Cosmos 1844 3.7 18:36:32 10° NNW 18:42:20 72° ENE 18:46:57 16° SE
Okean 3 4.1 18:38:42 10° N 18:42:34 33° ENE 18:42:57 32° E
CZ-4B R/B 4.5 18:41:18 10° NNW 18:43:02 14° WNW 18:44:45 10° W
Cosmos 2360 Rocket 2.1 18:38:43 10° SSW 18:44:21 85° ESE 18:50:04 10° NNE
Ariane Rocket 3.4 18:42:04 25° ESE 18:44:32 41° ENE 18:49:19 10° N
Cosmos 2278 Rocket 3.4 18:43:08 10° N 18:47:37 23° NE 18:48:35 22° ENE
Cosmos 1727 Rocket 4.4 18:45:01 10° N 18:50:45 38° ENE 18:52:57 29° ESE
Cosmos 1500 3.9 18:48:41 10° SSW 18:52:19 54° W 18:56:01 10° N
Meteor 2-4 Rocket 4.0 18:48:24 10° NNW 18:54:15 77° W 19:00:09 10° S
Cosmos 1703 Rocket 3.5 18:50:02 10° N 18:54:28 88° W 18:58:49 10° S
Cosmos 2333 Rocket 2.4 18:49:08 10° S 18:54:31 46° ESE 18:59:57 10° NE
Cosmos 2218 Rocket 4.0 18:49:51 10° S 18:56:05 58° E 19:02:21 10° NNE
SL-08 RB Rocket 4.3 18:51:56 10° S 18:56:22 57° W 19:00:53 10° NNW
Cosmos 1933 Rocket 4.3 18:58:17 10° SSW 19:02:32 55° WNW 19:06:52 10° N
Resurs 01 Rocket 3.0 19:12:41 25° NNE 19:12:41 25° NNE 19:15:07 10° N
Cosmos 2242 Rocket 4.4 19:08:04 10° NNW 19:12:28 51° W 19:16:45 10° SSW
Cosmos 864 Rocket 4.3 19:06:45 10° S 19:12:51 71° E 19:19:03 10° NNE
Cosmos 2322 Rocket 3.7 19:09:30 10° WSW 19:14:38 36° NW 19:19:49 10° NNE
Lacrosse 4 Rocket 2.6 19:12:07 10° SSW 19:14:29 30° S 19:14:29 30° S
Abrixas rocket 4.3 19:15:08 10° WNW 19:16:07 20° WNW 19:16:07 20° WNW
Cosmos 1959 Rocket 4.3 19:12:11 10° S 19:18:17 81° E 19:24:25 10° N
SME Rocket 4.0 19:10:16 10° NNE 19:18:32 79° ESE 19:23:49 10° SSW
Cosmos 192 4.2 19:16:49 10° SSW 19:21:43 86° ESE 19:26:40 10° NNE
SJ-6B 3.2 19:22:30 44° SSW 19:23:37 66° W 19:27:40 10° NNW
COSMOS 2428 2.6 19:18:59 10° S 19:24:32 58° ESE 19:24:51 58° E
ASTEX 1 3.2 19:22:47 10° N 19:27:42 90° WSW 19:30:11 30° S
MOS 1 4.2 19:25:33 32° SSE 19:28:23 86° WSW 19:34:06 10° NNW
Meteor 1-23 Rocket 4.1 19:24:30 10° N 19:30:05 66° ENE 19:30:27 64° E
Cosmos 2219 Rocket 2.0 19:25:55 10° SSW 19:31:30 78° ESE 19:37:08 10° NNE
Meteor 1-11 Rocket 3.7 19:25:49 10° S 19:31:34 87° W 19:37:13 10° N
OBJECT-B 2.8 19:36:26 26° NW 19:36:26 26° NW 19:38:07 10° NNW
Resurs 1-3 3.9 19:38:47 62° NNW 19:38:47 62° NNW 19:42:29 10° NNW
SeaSat 1 4.0 19:35:57 10° NNE 19:40:22 34° NW 19:44:47 10° WSW
SJ 16-02 2.6 19:36:59 10° NNW 19:39:34 33° N 19:39:34 33° N
USA 234 3.2 19:39:54 33° NE 19:43:06 82° NW 19:49:39 10° WSW
Cosmos 1066 Rocket 4.3 19:38:15 10° NNW 19:43:58 77° W 19:45:41 47° S
Meteor 2-20 Rocket 4.4 19:43:33 10° N 19:49:08 65° NE 19:49:08 65° NE
Cosmos 2322 4.1 19:45:56 10° SW 19:51:36 61° WNW 19:57:17 10° NNE
BREEZE-M DEB (TANK) 3.3 19:48:58 10° WNW 19:51:09 51° NW 19:51:09 51° NW
SL-4 R/B 4.1 19:52:57 10° WNW 19:54:13 21° WNW 19:54:13 21° WNW
Gbstr 26 Del rocket 4.1 19:56:44 10° WNW 20:00:58 50° N 20:00:58 50° N
ATLAS CENTAUR R/B 3.7 20:00:36 10° W 20:03:10 18° NW 20:03:10 18° NW
SPOT 3 Rocket 4.4 20:18:37 48° NW 20:18:37 48° NW 20:22:36 10° NNW
NOSS 3-3 (A) 4.4 20:11:00 10° NW 20:18:32 82° NE 20:18:42 81° ENE
NOSS 3-3 (C) 4.4 20:11:06 10° NW 20:18:38 81° NE 20:18:47 81° ENE
Cosmos 2278 Rocket 3.2 20:26:37 10° NNW 20:30:28 44° NW 20:30:28 44° NW
Cosmos 2333 Rocket 3.7 20:33:52 10° WSW 20:38:57 33° NW 20:44:06 10° NNE
Resurs 01 Rocket 4.3 20:50:14 17° NW 20:50:14 17° NW 20:51:30 10° NW
Cosmos 1943 Rocket 4.3 20:46:31 10° NNW 20:48:24 19° N 20:48:24 19° N
Cosmos 2219 Rocket 4.4 21:11:55 10° W 21:16:07 21° NW 21:20:20 10° N
